Friendship, ME

11:27 AM EDT on August 30, 2016 (GMT -0400)
Knox County Regional

Weather History for KRKD - January, 2013

Change the Weather History Date:

Thursday, January 24, 2013

  Actual Average Record
Temperature  
Mean Temperature 4 °F -  
Max Temperature 10 °F 25 °F 51 °F (1999)
Min Temperature -2 °F 11 °F -9 °F (2011)
Degree Days  
Heating Degree Days 61    
Moisture  
Dew Point -13 °F    
Average Humidity 46    
Maximum Humidity 60    
Minimum Humidity 31    
Precipitation  
Precipitation 0.00 in - - ()
Sea Level Pressure  
Sea Level Pressure 29.96 in    
Wind  
Wind Speed 12 mph (WNW)    
Max Wind Speed 22 mph    
Max Gust Speed 36 mph    
Visibility 10 miles    
Events      
Averages and records for this station are not official NWS values.
T = Trace of Precipitation, MM = Missing Value Source: NWS Daily Summary

Daily Weather History Graph

Daily Weather History Graph

Search for Another Location

Airport or City:

Trip Planner

Search our weather history database for the weather conditions in past years. The results will help you decide how hot, cold, wet, or windy it might be!

Date:

Astronomy

Jan. 24, 2013 Rise Set
Actual Time 7:01 AM EST 4:35 PM EST
Civil Twilight 6:30 AM EST 5:07 PM EST
Nautical Twilight 5:55 AM EST 5:42 PM EST
Astronomical Twilight 5:21 AM EST 6:16 PM EST
Moon 2:33 PM EST (1/24) 4:58 AM EST (1/24)
Length of Visible Light 10h 37m
Length of Day
9h 34m
Waxing Gibbous, 94% of the Moon is Illuminated
Jan 24
Waxing Gibbous
Jan 26
Full
Feb 3
Last Quarter
Feb 10
New
Feb 17
First Quarter

Hourly Weather History & Observations

Time (EST) Temp. Windchill Dew Point Humidity Pressure Visibility Wind Dir Wind Speed Gust Speed Precip Events Conditions
12:15 AM -0.4 °F -14.7 °F -18.4 °F 43% 30.00 in 10.0 mi WNW 8.1 mph - N/A   Clear
12:35 AM -2.2 °F -19.9 °F -16.6 °F 50% 29.99 in 10.0 mi West 11.5 mph - N/A   Clear
12:55 AM -2.2 °F -20.7 °F -16.6 °F 50% 29.99 in 10.0 mi West 12.7 mph 16.1 mph N/A   Clear
1:15 AM -2.2 °F -18.9 °F -16.6 °F 50% 29.99 in 10.0 mi WNW 10.4 mph - N/A   Clear
1:35 AM -2.2 °F -22.2 °F -18.4 °F 46% 29.99 in 10.0 mi West 15.0 mph 19.6 mph N/A   Clear
1:55 AM -2.2 °F -18.9 °F -14.8 °F 55% 30.00 in 10.0 mi West 10.4 mph 16.1 mph N/A   Clear
2:15 AM -2.2 °F -18.9 °F -16.6 °F 50% 30.00 in 10.0 mi WNW 10.4 mph 18.4 mph N/A   Clear
2:35 AM -2.2 °F -21.5 °F -18.4 °F 46% 29.99 in 10.0 mi West 13.8 mph 18.4 mph N/A   Clear
2:55 AM -2.2 °F -18.0 °F -14.8 °F 55% 29.99 in 10.0 mi WNW 9.2 mph - N/A   Clear
3:15 AM -2.2 °F -15.6 °F -16.6 °F 50% 29.99 in 10.0 mi WNW 6.9 mph - N/A   Clear
3:35 AM -2.2 °F -18.9 °F -16.6 °F 50% 29.99 in 10.0 mi West 10.4 mph - N/A   Clear
3:55 AM -2.2 °F -20.7 °F -16.6 °F 50% 29.99 in 10.0 mi WNW 12.7 mph - N/A   Clear
4:15 AM -2.2 °F -18.0 °F -16.6 °F 50% 29.98 in 10.0 mi WNW 9.2 mph - N/A   Clear
4:35 AM -2.2 °F -19.9 °F -16.6 °F 50% 29.97 in 10.0 mi WNW 11.5 mph 16.1 mph N/A   Clear
4:55 AM -2.2 °F -19.9 °F -16.6 °F 50% 29.97 in 10.0 mi West 11.5 mph 19.6 mph N/A   Clear
5:15 AM -2.2 °F -18.9 °F -16.6 °F 50% 29.97 in 10.0 mi WNW 10.4 mph 19.6 mph N/A   Clear
5:35 AM -2.2 °F -18.9 °F -16.6 °F 50% 29.97 in 10.0 mi WNW 10.4 mph - N/A   Clear
5:55 AM -2.2 °F -16.8 °F -14.8 °F 55% 29.97 in 10.0 mi WNW 8.1 mph - N/A   Clear
6:15 AM -2.2 °F -16.8 °F -14.8 °F 55% 29.97 in 10.0 mi West 8.1 mph - N/A   Clear
6:35 AM -2.2 °F -19.9 °F -14.8 °F 55% 29.97 in 10.0 mi West 11.5 mph - N/A   Clear
6:55 AM -2.2 °F -20.7 °F -14.8 °F 55% 29.98 in 10.0 mi West 12.7 mph 17.3 mph N/A   Clear
7:15 AM -2.2 °F -21.5 °F -13.0 °F 60% 29.97 in 10.0 mi West 13.8 mph - N/A   Clear
7:35 AM -2.2 °F -20.7 °F -13.0 °F 60% 29.98 in 10.0 mi WNW 12.7 mph - N/A   Clear
7:55 AM -0.4 °F -17.6 °F -11.2 °F 60% 29.98 in 10.0 mi West 11.5 mph 19.6 mph N/A   Clear
8:15 AM -0.4 °F -18.4 °F -11.2 °F 60% 29.99 in 10.0 mi West 12.7 mph 18.4 mph N/A   Clear
8:35 AM 1.4 °F -15.3 °F -13.0 °F 51% 29.99 in 10.0 mi West 11.5 mph 20.7 mph N/A   Clear
8:55 AM 1.4 °F -15.3 °F -11.2 °F 56% 29.99 in 10.0 mi West 11.5 mph - N/A   Clear
9:15 AM 3.2 °F -15.9 °F -13.0 °F 47% 29.98 in 10.0 mi West 16.1 mph 21.9 mph N/A   Clear
9:35 AM 3.2 °F -15.9 °F -11.2 °F 51% 29.97 in 10.0 mi West 16.1 mph 20.7 mph N/A   Clear
9:55 AM 5.0 °F -10.8 °F -11.2 °F 47% 29.97 in 10.0 mi WNW 11.5 mph 17.3 mph N/A   Clear
10:15 AM 6.8 °F -11.3 °F -11.2 °F 44% 29.97 in 10.0 mi West 16.1 mph 20.7 mph N/A   Clear
10:35 AM 6.8 °F -10.7 °F -11.2 °F 44% 29.97 in 10.0 mi NW 15.0 mph 21.9 mph N/A   Clear
10:55 AM 8.6 °F -5.5 °F -11.2 °F 40% 29.96 in 10.0 mi WNW 10.4 mph 18.4 mph N/A   Clear
11:15 AM 8.6 °F -7.0 °F -11.2 °F 40% 29.95 in 10.0 mi NW 12.7 mph 25.3 mph N/A   Clear
11:35 AM 8.6 °F -7.0 °F -11.2 °F 40% 29.94 in 10.0 mi WNW 12.7 mph 24.2 mph N/A   Clear
11:55 AM 10.4 °F -7.2 °F -11.2 °F 37% 29.93 in 10.0 mi West 17.3 mph 25.3 mph N/A   Clear
12:15 PM 10.4 °F -6.0 °F -11.2 °F 37% 29.92 in 10.0 mi West 15.0 mph 23.0 mph N/A   Clear
12:55 PM 10.4 °F -6.6 °F -14.8 °F 31% 29.91 in 10.0 mi WNW 16.1 mph 24.2 mph N/A   Clear
1:15 PM 10.4 °F -7.2 °F -13.0 °F 34% 29.90 in 10.0 mi WNW 17.3 mph 27.6 mph N/A   Clear
1:35 PM 10.4 °F -7.7 °F -14.8 °F 31% 29.89 in 10.0 mi West 18.4 mph 26.5 mph N/A   Clear
1:55 PM 10.4 °F -9.1 °F -14.8 °F 31% 29.89 in 10.0 mi WNW 21.9 mph 29.9 mph N/A   Clear
2:15 PM 10.4 °F -8.2 °F -14.8 °F 31% 29.89 in 10.0 mi WNW 19.6 mph 25.3 mph N/A   Clear
2:35 PM 10.4 °F -6.0 °F -14.8 °F 31% 29.88 in 10.0 mi WNW 15.0 mph 25.3 mph N/A   Clear
2:55 PM 10.4 °F -6.6 °F -13.0 °F 34% 29.87 in 10.0 mi West 16.1 mph 24.2 mph N/A   Clear
3:15 PM 10.4 °F -8.6 °F -14.8 °F 31% 29.87 in 10.0 mi West 20.7 mph 35.7 mph N/A   Clear
3:35 PM 10.4 °F -6.6 °F -14.8 °F 31% 29.88 in 10.0 mi West 16.1 mph - N/A   Clear
3:55 PM 10.4 °F -8.2 °F -14.8 °F 31% 29.87 in 10.0 mi West 19.6 mph 25.3 mph N/A   Clear
4:15 PM 10.4 °F -6.0 °F -14.8 °F 31% 29.88 in 10.0 mi West 15.0 mph 21.9 mph N/A   Clear
4:35 PM 10.4 °F -6.0 °F -14.8 °F 31% 29.88 in 10.0 mi WNW 15.0 mph 23.0 mph N/A   Clear
4:55 PM 10.4 °F -4.8 °F -13.0 °F 34% 29.90 in 10.0 mi West 12.7 mph 18.4 mph N/A   Clear
5:15 PM 10.4 °F -5.4 °F -11.2 °F 37% 29.90 in 10.0 mi West 13.8 mph 23.0 mph N/A   Clear
5:35 PM 10.4 °F -4.8 °F -11.2 °F 37% 29.92 in 10.0 mi WNW 12.7 mph 17.3 mph N/A   Clear
5:55 PM 10.4 °F -4.1 °F -11.2 °F 37% 29.93 in 10.0 mi West 11.5 mph - N/A   Clear
6:15 PM 8.6 °F -10.0 °F -11.2 °F 40% 29.93 in 10.0 mi West 18.4 mph 25.3 mph N/A   Clear
6:35 PM 8.6 °F -9.5 °F -11.2 °F 40% 29.94 in 10.0 mi West 17.3 mph 23.0 mph N/A   Clear
6:55 PM 8.6 °F -8.3 °F -9.4 °F 44% 29.95 in 10.0 mi WNW 15.0 mph 25.3 mph N/A   Clear
7:15 PM 8.6 °F -6.3 °F -9.4 °F 44% 29.97 in 10.0 mi WNW 11.5 mph 23.0 mph N/A   Clear
7:35 PM 6.8 °F -9.3 °F -11.2 °F 44% 29.99 in 10.0 mi NW 12.7 mph 23.0 mph N/A   Clear
7:55 PM 6.8 °F -5.9 °F -9.4 °F 48% 30.00 in 10.0 mi NW 8.1 mph - N/A   Clear
8:35 PM 5.0 °F -9.1 °F -11.2 °F 47% 30.01 in 10.0 mi WNW 9.2 mph 19.6 mph N/A   Clear
8:55 PM 3.2 °F -11.3 °F -11.2 °F 51% 30.01 in 10.0 mi NW 9.2 mph 19.6 mph N/A   Clear
9:15 PM 3.2 °F -12.2 °F -11.2 °F 51% 30.01 in 10.0 mi WNW 10.4 mph - N/A   Clear
9:35 PM 3.2 °F -10.3 °F -9.4 °F 56% 30.03 in 10.0 mi WNW 8.1 mph 18.4 mph N/A   Clear
9:55 PM 3.2 °F -11.3 °F -11.2 °F 51% 30.04 in 10.0 mi WNW 9.2 mph - N/A   Clear
10:15 PM 3.2 °F -13.9 °F -11.2 °F 51% 30.04 in 10.0 mi West 12.7 mph 19.6 mph N/A   Clear
10:35 PM 3.2 °F -11.3 °F -9.4 °F 56% 30.03 in 10.0 mi West 9.2 mph 16.1 mph N/A   Clear
10:55 PM 3.2 °F -10.3 °F -11.2 °F 51% 30.04 in 10.0 mi West 8.1 mph - N/A   Clear
11:15 PM 3.2 °F -6.2 °F -11.2 °F 51% 30.05 in 10.0 mi WNW 4.6 mph - N/A   Clear
11:35 PM 3.2 °F -7.8 °F -11.2 °F 51% 30.05 in 10.0 mi WNW 5.8 mph - N/A   Clear
11:55 PM 3.2 °F -14.6 °F -9.4 °F 56% 30.05 in 10.0 mi WNW 13.8 mph 17.3 mph N/A   Clear